This is the latest recevied weather packets stored in our database for station/object KC9GSD. If no packets are shown the sender has not sent any weather packets the latest 10 day(s).
| Time | Temp. | Humidity | Pressure | Rain* | Wind** | Luminosity | Snow |
|---|---|---|---|---|---|---|---|
| 1777613979 | 12.78° C | 70% | 1013.9 hPa | 0 mm | - | 0 W/m² | - |
| 1777613675 | 12.78° C | 70% | 1013.8 hPa | 0 mm | - | 0 W/m² | - |
| 1777613373 | 12.78° C | 71% | 1013.9 hPa | 0 mm | - | 0 W/m² | - |
| 1777613069 | 12.78° C | 70% | 1013.7 hPa | 0 mm | - | 0 W/m² | - |
| 1777612766 | 12.78° C | 70% | 1013.7 hPa | 0 mm | - | 0 W/m² | - |
| 1777612461 | 12.78° C | 72% | 1013.8 hPa | 0 mm | - | 0 W/m² | - |
| 1777612157 | 12.78° C | 71% | 1013.8 hPa | 0 mm | - | 0 W/m² | - |
| 1777611852 | 12.78° C | 72% | 1013.5 hPa | 0 mm | - | 0 W/m² | - |
| 1777611548 | 12.78° C | 69% | 1013.7 hPa | 0 mm | - | 0 W/m² | - |
| 1777611245 | 12.78° C | 71% | 1013.7 hPa | 0 mm | - | 0 W/m² | - |
| 1777610942 | 12.78° C | 73% | 1013.7 hPa | 0 mm | - | 0 W/m² | - |
| 1777610637 | 12.78° C | 76% | 1013.8 hPa | 0 mm | - | 0 W/m² | - |
| 1777610336 | 12.78° C | 75% | 1013.9 hPa | 0 mm | - | 0 W/m² | - |
| 1777610033 | 13.33° C | 74% | 1014.2 hPa | 0 mm | - | 0 W/m² | - |
| 1777609729 | 13.33° C | 68% | 1014.1 hPa | 0 mm | - | 0 W/m² | - |
| 1777609426 | 13.33° C | 68% | 1013.9 hPa | 0 mm | - | 0 W/m² | - |
| 1777609124 | 13.33° C | 68% | 1013.9 hPa | 0 mm | - | 0 W/m² | - |
| 1777608821 | 13.33° C | 66% | 1013.9 hPa | 0 mm | - | 0 W/m² | - |
| 1777608518 | 13.33° C | 67% | 1013.9 hPa | 0 mm | - | 0 W/m² | - |
| 1777608216 | 13.33° C | 66% | 1013.9 hPa | 0 mm | - | 0 W/m² | - |
| 1777607913 | 13.33° C | 67% | 1014 hPa | 0 mm | - | 0 W/m² | - |
| 1777607608 | 12.78° C | 70% | 1014.2 hPa | 0 mm | - | 0 W/m² | - |
| 1777607305 | 12.78° C | 70% | 1014.2 hPa | 0 mm | - | 0 W/m² | - |
| 1777607001 | 12.22° C | 78% | 1014.1 hPa | 0 mm | - | 0 W/m² | - |
| 1777606697 | 12.78° C | 76% | 1014.3 hPa | 0 mm | - | 0 W/m² | - |
* Rain latest hour (hover to see other rain measurements)
** Current wind speed in m/s (hover to see current wind gust speed)